[[{"header":{"parameterUnit":"m.s-1","parameterCategory":2,"la1":30.2992,"la2":30.254,"lo1":-89.0895,"lo2":-89.0443,"dy":0.0025,"dx":0.0025,"nx":19,"ny":19,"refTime":"2026-05-10T03:00:00:Z","depth":"0","parameterNumber":2,"parameterNumberName":"U-component_of_CURRENTS"},"data":[0,0,0,-0.0742,-0.0741,-0.0657,-0.0657,-0.0573,-0.0572,0,0,0,0,0,0,0,0,0,0,0,-0.0779,-0.0779,-0.0743,-0.0741,-0.0657,-0.0657,-0.0573,-0.0572,0,0,0,0,0,0,0,0,0,0,0,-0.0779,-0.0779,-0.0778,-0.074,-0.0657,-0.0657,-0.0573,-0.063,0,0,0,0,0,0,0,0,0,0,-0.0707,-0.0752,-0.0779,-0.0778,-0.074,-0.0657,-0.0657,-0.0632,-0.0626,-0.0619,0,-0.0612,0,-0.0589,-0.0568,-0.0567,0,0,0,-0.0737,-0.0757,-0.0721,-0.0778,-0.0739,-0.0657,-0.0694,-0.0628,-0.0622,-0.0611,-0.0611,-0.0607,-0.0587,-0.0567,-0.0567,-0.0562,-0.0563,0,0,-0.0741,-0.0774,-0.0726,-0.0717,-0.0726,-0.0696,-0.0691,-0.0624,-0.0629,-0.061,-0.0605,-0.0586,-0.0567,-0.0566,-0.0562,-0.0562,0,0,0,-0.0757,-0.0778,-0.0743,-0.0721,-0.0703,-0.0694,-0.0688,-0.0632,-0.0617,-0.0604,-0.0585,-0.0566,-0.0565,-0.0561,-0.0562,-0.0616,0,0,0,-0.076,-0.0786,-0.0745,-0.0765,-0.0705,-0.0666,-0.0698,-0.0622,-0.0613,-0.0585,-0.0566,-0.0565,-0.0561,-0.0562,-0.0613,-0.0624,0,0,0,-0.0781,-0.0789,-0.0779,-0.0767,-0.073,-0.0667,-0.0648,-0.062,-0.0602,-0.0567,-0.0564,-0.056,-0.0562,-0.0611,-0.0621,-0.0626,0,0,0,-0.0817,-0.0823,-0.078,-0.078,-0.0731,-0.0694,-0.0648,-0.0621,-0.0596,-0.0566,-0.0561,-0.0562,-0.061,-0.0618,-0.0625,-0.0624,-0.0633,0,0,-0.0844,-0.0827,-0.0825,-0.0784,-0.0763,-0.0705,-0.07,-0.0647,-0.0612,-0.0582,-0.0582,-0.0614,-0.062,-0.0626,-0.069,-0.0697,0,0,0,-0.0846,-0.0845,-0.0832,-0.0807,-0.0765,-0.0736,-0.0684,-0.0669,-0.0644,-0.0602,-0.0622,-0.0624,-0.0626,-0.0623,-0.0628,-0.064,-0.0567,-0.0567,-0.0567,-0.0941,-0.0894,-0.0889,-0.0833,-0.0811,-0.0761,-0.0746,-0.0717,-0.0681,-0.0688,-0.0675,-0.0724,-0.0723,-0.0727,-0.0741,-0.0689,-0.0689,-0.069,-0.069,-0.0984,-0.098,-0.0922,-0.0898,-0.0854,-0.084,-0.0796,-0.0777,-0.0763,-0.0733,-0.0732,-0.0688,-0.0736,-0.0748,-0.0693,-0.0693,-0.0692,-0.0692,-0.0692,-0.1053,-0.1041,-0.1009,-0.0962,-0.0933,-0.0881,-0.086,-0.0832,-0.0803,-0.0808,-0.0776,-0.0775,-0.0776,-0.0801,-0.0801,-0.0802,-0.0802,-0.0802,-0.0802,-0.1139,-0.1099,-0.1079,-0.1024,-0.0993,-0.0951,-0.0892,-0.0877,-0.0848,-0.0825,-0.0825,-0.0802,-0.0757,-0.0742,-0.0803,-0.0803,-0.0803,-0.0803,-0.0803,-0.1217,-0.1185,-0.1154,-0.112,-0.1036,-0.0988,-0.0942,-0.0899,-0.0883,-0.0876,-0.086,-0.0829,-0.0803,-0.0798,-0.0784,-0.0852,-0.0852,-0.0852,-0.0852,-0.1275,-0.1255,-0.1196,-0.1139,-0.1079,-0.1,-0.0955,-0.091,-0.0889,-0.088,-0.0888,-0.0878,-0.0875,-0.0852,-0.0846,-0.0832,-0.091,-0.091,-0.091,-0.1317,-0.1283,-0.1252,-0.1165,-0.1082,-0.1007,-0.0948,-0.0902,-0.0891,-0.0914,-0.0909,-0.0907,-0.0892,-0.0886,-0.0847,-0.0837,-0.0812,0,0]},{"header":{"parameterUnit":"m.s-1","parameterCategory":2,"la1":30.2992,"la2":30.254,"lo1":-89.0895,"lo2":-89.0443,"dy":0.0025,"dx":0.0025,"nx":19,"ny":19,"refTime":"2026-05-10T03:00:00:Z","depth":"0","parameterNumber":3,"parameterNumberName":"V-component_of_CURRENTS"},"data":[0,0,0,-0.1236,-0.1237,-0.1238,-0.1238,-0.1193,-0.1193,0,0,0,0,0,0,0,0,0,0,0,-0.1233,-0.1233,-0.1236,-0.1237,-0.1238,-0.1238,-0.1193,-0.1193,0,0,0,0,0,0,0,0,0,0,0,-0.1233,-0.1233,-0.1234,-0.1237,-0.1238,-0.1238,-0.1193,-0.1202,0,0,0,0,0,0,0,0,0,0,-0.1206,-0.1201,-0.1233,-0.1234,-0.1237,-0.1238,-0.1238,-0.1203,-0.1202,-0.1182,0,-0.1186,0,-0.1191,-0.1189,-0.1189,0,0,0,-0.123,-0.1203,-0.1216,-0.1234,-0.1237,-0.1238,-0.1235,-0.1203,-0.1201,-0.1179,-0.1186,-0.1184,-0.1191,-0.1189,-0.1189,-0.1157,-0.1157,0,0,-0.123,-0.1219,-0.1217,-0.1215,-0.1242,-0.1235,-0.1236,-0.1202,-0.1193,-0.1185,-0.1183,-0.119,-0.1189,-0.1188,-0.1157,-0.1157,0,0,0,-0.1234,-0.1218,-0.1233,-0.1216,-0.1222,-0.1236,-0.1236,-0.1195,-0.1203,-0.1183,-0.1189,-0.1188,-0.1188,-0.1157,-0.1157,-0.1156,0,0,0,-0.1234,-0.1222,-0.1233,-0.1224,-0.1223,-0.1212,-0.1229,-0.1206,-0.1202,-0.119,-0.1188,-0.1187,-0.1157,-0.1157,-0.1156,-0.1154,0,0,0,-0.1232,-0.1221,-0.1226,-0.1224,-0.123,-0.1213,-0.1219,-0.1205,-0.1206,-0.1189,-0.1187,-0.1157,-0.1157,-0.1156,-0.1154,-0.1144,0,0,0,-0.1215,-0.1214,-0.1226,-0.1223,-0.123,-0.1232,-0.122,-0.1208,-0.1195,-0.1188,-0.1157,-0.1157,-0.1156,-0.1154,-0.1144,-0.1182,-0.1185,0,0,-0.1206,-0.1212,-0.1212,-0.1223,-0.1225,-0.1231,-0.1224,-0.1201,-0.1189,-0.1163,-0.1163,-0.1156,-0.1154,-0.1144,-0.1187,-0.1189,0,0,0,-0.1204,-0.1206,-0.1207,-0.1212,-0.1218,-0.122,-0.1209,-0.1201,-0.1179,-0.1184,-0.1158,-0.1157,-0.115,-0.1174,-0.1176,-0.1186,-0.1157,-0.1157,-0.1157,-0.1173,-0.1188,-0.1188,-0.1206,-0.1207,-0.1208,-0.1203,-0.1192,-0.1179,-0.1171,-0.1158,-0.1151,-0.1177,-0.1179,-0.1189,-0.116,-0.116,-0.116,-0.116,-0.1168,-0.1175,-0.1185,-0.1194,-0.1202,-0.12,-0.1193,-0.1186,-0.1163,-0.116,-0.1154,-0.1174,-0.1181,-0.1191,-0.116,-0.116,-0.116,-0.116,-0.116,-0.116,-0.1165,-0.1175,-0.1191,-0.1194,-0.1199,-0.1198,-0.1182,-0.1161,-0.1151,-0.1168,-0.1168,-0.1175,-0.1142,-0.1142,-0.1142,-0.1142,-0.1142,-0.1142,-0.115,-0.116,-0.1175,-0.1188,-0.1198,-0.1206,-0.1196,-0.1189,-0.1177,-0.1169,-0.1169,-0.118,-0.1146,-0.1144,-0.1141,-0.1141,-0.1141,-0.1142,-0.1142,-0.115,-0.1156,-0.1181,-0.1194,-0.1219,-0.1246,-0.1232,-0.1231,-0.1206,-0.1206,-0.121,-0.1179,-0.1181,-0.118,-0.1179,-0.1185,-0.1185,-0.1186,-0.1186,-0.1146,-0.1152,-0.1194,-0.1222,-0.1246,-0.1268,-0.131,-0.1318,-0.1282,-0.1276,-0.1232,-0.1251,-0.1249,-0.1255,-0.1252,-0.1253,-0.1278,-0.1278,-0.1278,-0.1149,-0.1164,-0.1198,-0.1232,-0.1262,-0.1304,-0.137,-0.1422,-0.1367,-0.1281,-0.1237,-0.1233,-0.1258,-0.1254,-0.1262,-0.1258,-0.1258,0,0]}],[{"header":{"parameterUnit":"m.s-1","parameterCategory":2,"la1":30.2992,"la2":30.254,"lo1":-89.0895,"lo2":-89.0443,"dy":0.0025,"dx":0.0025,"nx":19,"ny":19,"refTime":"2026-05-10T03:00:00:Z","depth":"2","parameterNumber":2,"parameterNumberName":"U-component_of_CURRENTS"},"data":[0,0,0,-0.0185,-0.0186,-0.0228,-0.0228,-0.0239,-0.0239,0,0,0,0,0,0,0,0,0,0,0,-0.017,-0.017,-0.0185,-0.0186,-0.0228,-0.0228,-0.0239,-0.0239,0,0,0,0,0,0,0,0,0,0,0,-0.017,-0.017,-0.0171,-0.0186,-0.0228,-0.0228,-0.0239,-0.0218,0,0,0,0,0,0,0,0,0,0,-0.0182,-0.0176,-0.017,-0.0171,-0.0186,-0.0228,-0.0228,-0.0217,-0.0219,-0.0207,0,-0.0216,0,-0.0226,-0.0239,-0.0238,0,0,0,-0.0186,-0.0174,-0.0185,-0.0171,-0.0187,-0.0228,-0.0209,-0.0219,-0.0221,-0.0209,-0.0216,-0.0217,-0.0227,-0.0238,-0.0238,-0.0275,-0.0276,0,0,-0.0184,-0.0178,-0.0183,-0.0186,-0.0199,-0.0208,-0.0211,-0.022,-0.0222,-0.0216,-0.0217,-0.0227,-0.0238,-0.0238,-0.0275,-0.0275,0,0,0,-0.0177,-0.0176,-0.0187,-0.0185,-0.0196,-0.0209,-0.0212,-0.0222,-0.0226,-0.0217,-0.0227,-0.0238,-0.0238,-0.0274,-0.0275,-0.0302,0,0,0,-0.0176,-0.0172,-0.0186,-0.0183,-0.0196,-0.0216,-0.0213,-0.0225,-0.0227,-0.0227,-0.0238,-0.0238,-0.0274,-0.0275,-0.03,-0.0316,0,0,0,-0.0168,-0.0171,-0.0176,-0.0182,-0.02,-0.0216,-0.0221,-0.0226,-0.0232,-0.0238,-0.0238,-0.0274,-0.0275,-0.0299,-0.0313,-0.033,0,0,0,-0.0159,-0.0181,-0.0176,-0.0205,-0.02,-0.0244,-0.0221,-0.0248,-0.0258,-0.0238,-0.0274,-0.0275,-0.0298,-0.0312,-0.0329,-0.0313,-0.032,0,0,-0.0184,-0.0183,-0.0202,-0.02,-0.0245,-0.0238,-0.0283,-0.028,-0.0268,-0.0266,-0.0268,-0.0301,-0.0313,-0.033,-0.0374,-0.0378,0,0,0,-0.0209,-0.0224,-0.0237,-0.0261,-0.0282,-0.0305,-0.0309,-0.0307,-0.0313,-0.0279,-0.0315,-0.0322,-0.0331,-0.0319,-0.0323,-0.028,-0.028,-0.028,-0.028,-0.0239,-0.0253,-0.0289,-0.0311,-0.0334,-0.0354,-0.0368,-0.0366,-0.0347,-0.0356,-0.0354,-0.04,-0.0389,-0.0391,-0.0364,-0.0364,-0.0364,-0.0364,-0.0364,-0.0286,-0.0314,-0.0325,-0.0366,-0.0382,-0.0414,-0.0421,-0.0412,-0.0421,-0.0397,-0.0405,-0.0361,-0.0397,-0.0366,-0.0366,-0.0366,-0.0365,-0.0365,-0.0365,-0.0315,-0.0332,-0.0351,-0.0395,-0.0428,-0.0445,-0.0463,-0.0461,-0.0451,-0.046,-0.0438,-0.0437,-0.0408,-0.046,-0.046,-0.046,-0.046,-0.046,-0.046,-0.0341,-0.036,-0.0388,-0.0424,-0.0444,-0.0468,-0.0486,-0.0488,-0.0485,-0.0474,-0.0474,-0.0432,-0.0429,-0.0414,-0.0463,-0.0462,-0.0462,-0.0462,-0.0462,-0.0402,-0.0388,-0.0424,-0.0443,-0.0472,-0.049,-0.0502,-0.051,-0.0515,-0.0511,-0.048,-0.0478,-0.0467,-0.0463,-0.045,-0.0504,-0.0504,-0.0504,-0.0504,-0.0431,-0.0429,-0.0455,-0.0465,-0.0481,-0.0497,-0.0546,-0.0576,-0.0552,-0.0533,-0.0532,-0.0509,-0.0506,-0.0495,-0.0491,-0.0477,-0.0539,-0.0539,-0.0539,-0.0473,-0.0464,-0.0482,-0.0469,-0.0478,-0.0502,-0.0583,-0.0652,-0.0582,-0.0543,-0.0559,-0.0503,-0.0463,-0.046,-0.0438,-0.0434,-0.0408,0,0]},{"header":{"parameterUnit":"m.s-1","parameterCategory":2,"la1":30.2992,"la2":30.254,"lo1":-89.0895,"lo2":-89.0443,"dy":0.0025,"dx":0.0025,"nx":19,"ny":19,"refTime":"2026-05-10T03:00:00:Z","depth":"2","parameterNumber":3,"parameterNumberName":"V-component_of_CURRENTS"},"data":[0,0,0,-0.0014,-0.0015,-0.0037,-0.0037,0.0034,0.0034,0,0,0,0,0,0,0,0,0,0,0,-0.0012,-0.0013,-0.0014,-0.0015,-0.0037,-0.0037,0.0033,0.0034,0,0,0,0,0,0,0,0,0,0,0,-0.0012,-0.0013,-0.0013,-0.0015,-0.0037,-0.0037,0.0033,0.0027,0,0,0,0,0,0,0,0,0,0,0.0037,0.0007,-0.0013,-0.0013,-0.0015,-0.0037,-0.0037,0.0026,0.0028,0.0069,0,0.0051,0,0.0046,0.0041,0.0041,0,0,0,-0.0007,0.0005,0.0014,-0.0014,-0.0016,-0.0037,-0.0025,0.0026,0.0028,0.0072,0.0052,0.0054,0.0047,0.0041,0.0042,0.0101,0.0101,0,0,-0.0006,-0.0024,0.0012,0.0014,-0.0037,-0.0024,-0.0025,0.0026,0.0016,0.0052,0.0055,0.0048,0.0042,0.0043,0.0101,0.0101,0,0,0,-0.0008,-0.0023,-0.0018,0.0012,0.0001,-0.0025,-0.0026,0.0013,0.0018,0.0056,0.0049,0.0042,0.0044,0.0101,0.0101,0.0032,0,0,0,-0.0007,-0.0024,-0.0018,-0.0029,-0.0002,-0.0011,-0.0041,0.0014,0.002,0.0049,0.0042,0.0044,0.0101,0.0101,0.0034,0.0,0,0,0,-0.0009,-0.0025,-0.0029,-0.003,-0.0041,-0.0012,-0.0005,0.0015,0.0016,0.0041,0.0045,0.0101,0.0101,0.0035,0.0004,-0.0009,0,0,0,-0.0021,-0.0034,-0.0031,-0.0043,-0.0041,-0.0026,-0.0006,0.0001,0.0018,0.0043,0.0101,0.0101,0.0036,0.0006,-0.0007,0.0044,0.004,0,0,-0.0035,-0.0036,-0.0038,-0.0035,-0.0033,-0.0021,-0.002,0.0004,0.0034,0.0093,0.0093,0.0033,0.0004,-0.0009,0.0038,0.0033,0,0,0,-0.0039,-0.0048,-0.0044,-0.005,-0.0031,-0.0039,-0.0013,-0.0002,0.0015,0.0041,0.005,0.0035,0.0028,0.0064,0.0061,0.01,0.01,0.01,0.01,-0.0096,-0.0074,-0.0081,-0.0061,-0.0058,-0.0046,-0.005,-0.0028,0.001,-0.0,-0.0009,-0.0049,-0.0011,-0.0013,0.0008,0.0008,0.0008,0.0008,0.0007,-0.0119,-0.0122,-0.0112,-0.0115,-0.0112,-0.0116,-0.0091,-0.0086,-0.0079,-0.0048,-0.005,0.0006,-0.0021,0.0002,0.0003,0.0004,0.0005,0.0005,0.0005,-0.0155,-0.0151,-0.016,-0.0168,-0.0191,-0.0178,-0.0191,-0.0178,-0.0146,-0.0159,-0.0091,-0.0089,-0.0096,-0.0156,-0.0156,-0.0156,-0.0156,-0.0156,-0.0156,-0.0189,-0.0188,-0.021,-0.022,-0.0243,-0.0263,-0.0257,-0.0238,-0.0192,-0.0158,-0.0157,-0.0104,-0.0098,-0.0103,-0.016,-0.0159,-0.0159,-0.0158,-0.0158,-0.0219,-0.0225,-0.0247,-0.0271,-0.0296,-0.0296,-0.0285,-0.0218,-0.0208,-0.0163,-0.0143,-0.0142,-0.0111,-0.0106,-0.0109,-0.0164,-0.0164,-0.0164,-0.0164,-0.0245,-0.0245,-0.0277,-0.03,-0.0312,-0.0306,-0.0245,-0.0112,-0.0043,0.004,0.0031,0.0089,0.0084,0.0131,0.013,0.0134,0.0142,0.0143,0.0144,-0.0265,-0.0268,-0.0295,-0.0306,-0.0314,-0.0295,-0.0213,0.0072,0.0333,0.0161,0.0138,-0.0154,-0.009,-0.009,-0.0033,-0.0028,-0.0029,0,0]}],[{"header":{"parameterUnit":"m.s-1","parameterCategory":2,"la1":30.2992,"la2":30.254,"lo1":-89.0895,"lo2":-89.0443,"dy":0.0025,"dx":0.0025,"nx":19,"ny":19,"refTime":"2026-05-10T03:00:00:Z","depth":"4","parameterNumber":2,"parameterNumberName":"U-component_of_CURRENTS"},"data":[0,0,0,-0.0429,-0.0433,-0.0703,-0.0705,-0.1081,-0.1084,0,0,0,0,0,0,0,0,0,0,0,-0.0356,-0.0357,-0.0429,-0.0433,-0.0703,-0.0705,-0.1081,-0.1084,0,0,0,0,0,0,0,0,0,0,0,-0.0356,-0.0357,-0.0358,-0.0434,-0.0703,-0.0705,-0.108,-0.0883,0,0,0,0,0,0,0,0,0,0,-0.0624,-0.0572,-0.0357,-0.0358,-0.0435,-0.0702,-0.0705,-0.0874,-0.0896,-0.0949,0,-0.0969,0,-0.1,-0.1104,-0.1105,0,0,0,-0.0494,-0.0555,-0.0569,-0.0359,-0.0437,-0.0702,-0.0599,-0.0887,-0.0911,-0.0977,-0.0974,-0.0988,-0.1007,-0.1106,-0.1108,-0.1304,-0.1304,0,0,-0.0479,-0.0473,-0.0552,-0.0583,-0.0479,-0.0589,-0.0606,-0.0901,-0.0949,-0.0975,-0.0996,-0.1013,-0.1108,-0.1111,-0.1305,-0.1304,0,0,0,-0.0395,-0.0463,-0.0473,-0.0568,-0.0596,-0.0596,-0.0615,-0.0939,-0.0924,-0.1,-0.1017,-0.111,-0.1114,-0.1305,-0.1305,-0.1202,0,0,0,-0.039,-0.0408,-0.0465,-0.0475,-0.0589,-0.0775,-0.0646,-0.0906,-0.0939,-0.1015,-0.111,-0.1117,-0.1305,-0.1305,-0.1205,-0.1159,0,0,0,-0.0349,-0.0406,-0.0414,-0.0471,-0.0552,-0.077,-0.078,-0.0915,-0.0946,-0.1106,-0.1118,-0.1305,-0.1305,-0.1207,-0.1165,-0.1075,0,0,0,-0.0365,-0.0387,-0.0415,-0.0448,-0.0548,-0.0672,-0.0779,-0.0948,-0.1084,-0.1112,-0.1305,-0.1305,-0.1208,-0.1168,-0.1079,-0.0969,0,0,0,-0.0386,-0.0391,-0.0398,-0.0425,-0.0477,-0.0641,-0.0787,-0.1016,-0.1089,-0.1221,-0.1227,-0.1204,-0.1165,-0.1076,-0.0955,0,0,0,0,-0.0397,-0.0402,-0.0423,-0.0465,-0.0555,-0.0712,-0.0932,-0.0999,-0.1131,-0.1153,-0.1227,-0.1206,-0.1152,-0.1103,-0.1303,-0.1303,-0.1303,-0.1303,-0.1303,-0.0399,-0.0407,-0.0433,-0.0486,-0.0601,-0.0799,-0.09,-0.1034,-0.1127,-0.1146,-0.1139,-0.1027,-0.0974,-0.1161,-0.1161,-0.116,-0.116,-0.116,-0.1159,-0.0373,-0.0366,-0.0436,-0.0488,-0.0622,-0.0794,-0.0935,-0.0993,-0.1004,-0.1087,-0.1038,-0.1021,-0.115,-0.1152,-0.1153,-0.1154,-0.1155,-0.1156,-0.1156,-0.0341,-0.0343,-0.0394,-0.0473,-0.0612,-0.0793,-0.0781,-0.0879,-0.0915,-0.0859,-0.0789,-0.0948,-0.0934,-0.082,-0.082,-0.0819,-0.0818,-0.0818,-0.0818,-0.029,-0.0326,-0.0354,-0.0461,-0.0508,-0.0598,-0.0681,-0.0627,-0.0683,-0.066,-0.0815,-0.0912,-0.0923,-0.0916,-0.0808,-0.081,-0.0811,-0.0812,-0.0813,-0.0219,-0.0273,-0.027,-0.0295,-0.034,-0.0387,-0.0442,-0.0405,-0.0312,-0.0274,-0.0548,-0.0564,-0.0583,-0.0602,-0.0585,-0.0374,-0.0372,-0.0371,0,-0.0167,-0.0192,-0.0165,-0.0134,-0.0116,-0.0236,-0.0099,-0.0094,-0.0208,-0.0266,-0.0291,-0.0606,-0.0618,-0.0647,-0.066,-0.0642,0,0,0,-0.0095,-0.0105,-0.0047,-0.0055,-0.0033,-0.0054,-0.0087,-0.0082,-0.0237,-0.0099,-0.0323,-0.0336,-0.048,-0.0781,-0.0848,-0.0861,-0.0853,0,0]},{"header":{"parameterUnit":"m.s-1","parameterCategory":2,"la1":30.2992,"la2":30.254,"lo1":-89.0895,"lo2":-89.0443,"dy":0.0025,"dx":0.0025,"nx":19,"ny":19,"refTime":"2026-05-10T03:00:00:Z","depth":"4","parameterNumber":3,"parameterNumberName":"V-component_of_CURRENTS"},"data":[0,0,0,-0.0171,-0.0171,-0.0153,-0.0153,-0.0003,-0.0002,0,0,0,0,0,0,0,0,0,0,0,-0.0151,-0.0151,-0.0171,-0.0172,-0.0153,-0.0152,-0.0004,-0.0002,0,0,0,0,0,0,0,0,0,0,0,-0.0151,-0.0151,-0.0151,-0.0172,-0.0153,-0.0152,-0.0004,-0.0041,0,0,0,0,0,0,0,0,0,0,-0.0072,-0.0073,-0.0151,-0.0151,-0.0172,-0.0153,-0.0152,-0.0044,-0.0039,0.0014,0,0.0012,0,-0.0014,0.0008,0.0008,0,0,0,-0.014,-0.0078,-0.0093,-0.0151,-0.0172,-0.0153,-0.0152,-0.0042,-0.0036,0.0021,0.0013,0.0017,-0.0012,0.0009,0.0009,0.0106,0.0106,0,0,-0.0141,-0.0123,-0.0098,-0.009,-0.0171,-0.0153,-0.0152,-0.004,-0.0019,0.0014,0.002,-0.0009,0.001,0.0011,0.0106,0.0106,0,0,0,-0.0165,-0.0123,-0.0142,-0.0094,-0.0113,-0.0154,-0.0152,-0.0024,-0.0036,0.0021,-0.0007,0.0011,0.0012,0.0106,0.0106,0.0091,0,0,0,-0.0164,-0.0141,-0.0143,-0.0128,-0.0117,-0.0085,-0.0138,-0.0043,-0.0033,-0.0008,0.0011,0.0014,0.0106,0.0106,0.0091,0.0059,0,0,0,-0.0151,-0.0139,-0.0143,-0.0128,-0.0141,-0.0089,-0.0093,-0.0042,-0.0051,0.0008,0.0014,0.0106,0.0106,0.0092,0.006,0.0061,0,0,0,-0.0124,-0.0159,-0.0142,-0.0191,-0.0141,-0.0217,-0.0094,-0.0076,-0.0032,0.0011,0.0106,0.0106,0.0092,0.0061,0.0062,0.0054,0,0,0,-0.0169,-0.0163,-0.0201,-0.0189,-0.0294,-0.0217,-0.0263,-0.0116,-0.0011,0.0084,0.0085,0.0091,0.0061,0.0061,0.0046,0,0,0,0,-0.0219,-0.0237,-0.0273,-0.0314,-0.0358,-0.0345,-0.0253,-0.0164,0.0008,0.0006,0.0093,0.0073,0.0075,0.0073,0.0105,0.0105,0.0105,0.0105,0.0105,-0.0218,-0.0274,-0.0347,-0.0408,-0.0442,-0.0408,-0.0351,-0.0199,-0.0087,0.0019,0.0064,0.0052,0.005,0.008,0.008,0.008,0.008,0.008,0.008,-0.0284,-0.0329,-0.0377,-0.0457,-0.047,-0.0466,-0.0356,-0.0231,-0.0068,0.0034,0.0038,0.0059,0.0079,0.0079,0.0079,0.0079,0.0079,0.0079,0.0079,-0.028,-0.0314,-0.035,-0.044,-0.0451,-0.0428,-0.0366,-0.0225,-0.0069,-0.0043,0.0013,0.0037,0.0036,0.0013,0.0013,0.0013,0.0013,0.0013,0.0013,-0.0252,-0.0308,-0.0349,-0.0423,-0.0432,-0.0398,-0.0315,-0.026,-0.0132,-0.0027,-0.0008,0.003,0.0032,0.0032,0.0011,0.0011,0.0011,0.0012,0.0012,-0.0269,-0.0276,-0.0338,-0.0365,-0.0408,-0.0398,-0.0355,-0.0265,-0.0204,-0.0147,-0.0028,-0.0026,-0.0024,-0.0021,-0.0022,-0.0061,-0.0061,-0.0061,0,-0.025,-0.0273,-0.0326,-0.0365,-0.0387,-0.0394,-0.033,-0.0298,-0.0185,-0.0127,-0.0208,-0.0075,-0.0071,-0.0074,-0.0071,-0.0076,0,0,0,-0.0251,-0.0263,-0.0287,-0.0342,-0.0369,-0.0318,-0.0304,-0.0259,-0.0174,-0.0195,-0.0066,-0.0065,-0.0161,0.0004,0.0012,0.0015,0.0016,0,0]}]]